FW6620 Weather Reports


time (UTC)temp
C
wind
direction
speed
KPH
gust
KPH
rain 1hr
cm
rain 24hr
cm
rain mn
cm
humidity
%
barometer
mb
20240222114047 18 0 0.0 4.8 0.00 0.00 0.00 86 1012.5
20240222113547 18 87 0.0 3.2 0.00 0.00 0.00 85 1012.6
20240222113052 18 0 0.0 3.2 0.00 0.00 0.00 85 1012.5
20240222112547 18 87 0.0 3.2 0.00 0.00 0.00 85 1012.5
20240222112047 18 0 0.0 6.4 0.00 0.00 0.00 85 1012.7
20240222111559 18 0 0.0 6.4 0.00 0.00 0.00 85 1012.9
20240222111047 18 0 0.0 6.4 0.00 0.00 0.00 85 1012.3
20240222110548 18 0 0.0 11.3 0.00 0.00 0.00 85 1012.5
20240222110058 18 0 0.0 11.3 0.00 0.00 0.00 85 1012.4
20240222105546 18 86 3.2 11.3 0.00 0.00 0.00 84 1011.8
20240222105047 18 167 0.0 0.0 0.00 0.00 0.00 84 1013.0
20240222104622 18 0 0.0 0.0 0.00 0.00 0.00 84 1013.4
20240222104046 18 0 0.0 0.0 0.00 0.00 0.00 84 1013.5
20240222103546 18 0 0.0 0.0 0.00 0.00 0.00 84 1013.7
20240222103048 18 0 0.0 1.6 0.00 0.00 0.00 84 1013.1
20240222102546 18 0 0.0 1.6 0.00 0.00 0.00 84 1013.2
20240222102047 18 0 0.0 0.0 0.00 0.00 0.00 83 1013.1
20240222101556 18 0 0.0 1.6 0.00 0.00 0.00 83 1013.2
20240222101046 18 0 0.0 3.2 0.00 0.00 0.00 83 1013.1
20240222100549 18 0 0.0 4.8 0.00 0.00 0.00 83 1013.1
20240222100050 18 0 0.0 6.4 0.00 0.00 0.00 83 1013.0
20240222095546 18 0 0.0 6.4 0.00 0.00 0.00 83 1013.2
20240222095046 18 0 0.0 3.2 0.00 0.00 0.00 83 1013.3
20240222094550 18 0 0.0 3.2 0.00 0.00 0.00 83 1013.2
20240222094047 18 109 0.0 3.2 0.00 0.00 0.00 84 1013.3
20240222093546 18 0 0.0 3.2 0.00 0.00 0.00 83 1013.1
20240222093050 18 0 0.0 4.8 0.00 0.00 0.00 83 1012.9
20240222092547 18 111 0.0 6.4 0.00 0.00 0.00 83 1013.0
20240222092049 18 111 0.0 6.4 0.00 0.00 0.00 83 1012.7
20240222091557 18 0 0.0 8.0 0.00 0.00 0.00 83 1012.3
20240222091046 18 0 0.0 8.0 0.00 0.00 0.00 83 1012.2
20240222090546 18 0 1.6 11.3 0.00 0.00 0.00 83 1012.1
20240222090053 18 0 1.6 11.3 0.00 0.00 0.00 83 1012.2
20240222085546 18 86 3.2 8.0 0.00 0.00 0.00 83 1012.1
20240222085047 18 0 0.0 9.7 0.00 0.00 0.00 83 1012.3
20240222084606 18 93 0.0 11.3 0.00 0.00 0.00 83 1012.3
20240222084047 18 90 0.0 12.9 0.00 0.00 0.00 82 1012.4
20240222083546 18 89 4.8 12.9 0.00 0.00 0.00 82 1012.5
20240222083052 18 0 1.6 12.9 0.00 0.00 0.00 83 1012.6
20240222082550 18 87 0.0 11.3 0.00 0.00 0.00 83 1012.5
20240222082047 18 111 1.6 19.3 0.00 0.00 0.00 82 1012.6
20240222081547 18 128 1.6 20.9 0.00 0.00 0.00 83 1012.7
20240222081046 18 74 1.6 20.9 0.00 0.00 0.00 82 1012.7
20240222080547 18 0 1.6 14.5 0.00 0.00 0.00 82 1012.8
20240222080051 18 88 0.0 16.1 0.00 0.00 0.00 82 1012.7
20240222075546 18 0 3.2 16.1 0.00 0.00 0.00 83 1012.8
20240222075046 18 117 0.0 8.0 0.00 0.00 0.00 83 1012.9
20240222074550 18 95 1.6 16.1 0.00 0.00 0.00 83 1012.9
20240222074050 18 0 3.2 16.1 0.00 0.00 0.00 83 1012.7
20240222073546 18 95 1.6 16.1 0.00 0.00 0.00 83 1012.7
20240222073047 18 91 4.8 20.9 0.00 0.00 0.00 83 1012.7
20240222072546 18 122 3.2 22.5 0.00 0.00 0.00 83 1012.6
20240222072046 18 103 3.2 22.5 0.00 0.00 0.00 83 1012.7
20240222071553 18 126 1.6 19.3 0.00 0.00 0.00 84 1012.8
20240222071047 18 109 4.8 19.3 0.00 0.00 0.00 84 1012.7
20240222070546 18 64 1.6 14.5 0.00 0.00 0.00 84 1013.0
20240222070103 18 45 3.2 14.5 0.00 0.00 0.00 84 1013.0
20240222065546 18 73 3.2 16.1 0.00 0.00 0.00 85 1013.0
20240222065046 18 49 1.6 17.7 0.00 0.00 0.00 85 1013.0
20240222064548 18 58 6.4 24.1 0.00 0.00 0.00 85 1013.1
20240222064050 18 0 4.8 24.1 0.00 0.00 0.00 85 1013.0
20240222063546 18 0 1.6 14.5 0.00 0.00 0.00 85 1013.0
20240222063052 18 99 3.2 16.1 0.00 0.00 0.00 85 1013.1
20240222062547 18 103 3.2 19.3 0.00 0.00 0.00 85 1013.3
20240222062046 18 65 3.2 19.3 0.00 0.00 0.00 85 1013.4
20240222061603 18 72 4.8 24.1 0.00 0.00 0.00 85 1013.6
20240222061046 18 75 3.2 24.1 0.00 0.00 0.00 85 1013.8
20240222060549 18 91 4.8 24.1 0.00 0.00 0.00 85 1013.8
20240222060101 18 124 1.6 11.3 0.00 0.00 0.00 85 1013.8
20240222055546 18 0 1.6 12.9 0.00 0.00 0.00 85 1014.0
20240222055046 18 109 1.6 12.9 0.00 0.00 0.00 85 1014.1
20240222054601 18 0 0.0 14.5 0.00 0.00 0.00 85 1014.0
20240222054050 18 145 3.2 14.5 0.00 0.00 0.00 85 1014.1
20240222053545 18 63 3.2 14.5 0.00 0.00 0.00 85 1014.2
20240222053057 18 0 4.8 14.5 0.00 0.00 0.00 85 1014.3
20240222052544 18 76 3.2 12.9 0.00 0.00 0.00 85 1014.4
20240222052044 18 89 1.6 16.1 0.00 0.00 0.00 85 1014.6
20240222051601 18 72 0.0 16.1 0.00 0.00 0.00 85 1014.7
20240222051044 18 166 4.8 16.1 0.00 0.00 0.00 85 1014.6
20240222050550 18 85 1.6 17.7 0.00 0.00 0.00 85 1014.5
20240222050100 18 67 1.6 20.9 0.00 0.00 0.00 85 1014.4
20240222045545 18 98 4.8 20.9 0.00 0.00 0.00 85 1014.5
20240222045047 18 101 4.8 20.9 0.00 0.00 0.00 84 1014.4
20240222044616 18 66 0.0 12.9 0.00 0.00 0.00 84 1014.5
20240222044045 18 0 1.6 17.7 0.00 0.00 0.00 84 1014.6
20240222043545 18 98 3.2 17.7 0.00 0.00 0.00 84 1014.4
20240222043104 18 71 4.8 20.9 0.00 0.00 0.00 84 1014.5
20240222042546 18 76 6.4 20.9 0.00 0.00 0.00 84 1014.5
20240222042046 18 70 1.6 14.5 0.00 0.00 0.00 84 1014.3
20240222041552 18 51 1.6 20.9 0.00 0.00 0.00 84 1014.3
20240222041047 18 68 3.2 20.9 0.00 0.00 0.00 84 1014.2
20240222040546 18 78 3.2 14.5 0.00 0.00 0.00 84 1014.2
20240222040055 18 155 3.2 16.1 0.00 0.00 0.00 84 1014.2
20240222035552 18 85 4.8 25.7 0.00 0.00 0.00 84 1014.1
20240222035045 18 104 4.8 25.7 0.00 0.00 0.00 83 1014.1
20240222034551 18 68 4.8 25.7 0.00 0.00 0.00 83 1014.1
20240222034044 19 68 3.2 19.3 0.00 0.00 0.00 83 1014.1
20240222033545 19 259 3.2 16.1 0.00 0.00 0.00 83 1014.1
20240222033048 19 56 1.6 16.1 0.00 0.00 0.00 82 1014.1
20240222032544 19 0 3.2 16.1 0.00 0.00 0.00 82 1014.0
20240222032046 19 74 1.6 16.1 0.00 0.00 0.00 82 1013.9
20240222031551 19 68 4.8 17.7 0.00 0.00 0.00 82 1014.0
20240222031046 19 78 1.6 17.7 0.00 0.00 0.00 81 1014.1
20240222030546 19 85 3.2 16.1 0.00 0.00 0.00 81 1014.2
20240222030054 19 68 1.6 16.1 0.00 0.00 0.00 81 1014.1
20240222025549 19 69 1.6 14.5 0.00 0.00 0.00 80 1014.0
20240222025045 19 68 1.6 17.7 0.00 0.00 0.00 79 1014.0
20240222024555 19 207 3.2 17.7 0.00 0.00 0.00 79 1013.7
20240222024046 20 66 3.2 16.1 0.00 0.00 0.00 78 1013.6
20240222023545 20 66 1.6 16.1 0.00 0.00 0.00 78 1013.5
20240222023057 20 112 4.8 16.1 0.00 0.00 0.00 78 1013.4
20240222022546 20 60 1.6 20.9 0.00 0.00 0.00 77 1013.4
20240222022044 20 0 4.8 20.9 0.00 0.00 0.00 76 1013.3
20240222021551 20 143 4.8 20.9 0.00 0.00 0.00 76 1013.1
20240222021045 20 89 4.8 16.1 0.00 0.00 0.00 76 1013.0
20240222020545 20 75 1.6 16.1 0.00 0.00 0.00 75 1013.1
20240222020057 20 0 3.2 14.5 0.00 0.00 0.00 75 1013.3
20240222015544 20 73 3.2 14.5 0.00 0.00 0.00 75 1013.3
20240222015044 21 91 1.6 14.5 0.00 0.00 0.00 74 1013.3
20240222014554 21 79 1.6 11.3 0.00 0.00 0.00 74 1013.3
20240222014046 21 60 3.2 19.3 0.00 0.00 0.00 74 1013.2
20240222013546 21 59 1.6 19.3 0.00 0.00 0.00 74 1013.3
20240222013101 21 90 3.2 16.1 0.00 0.00 0.00 73 1013.2
20240222012544 21 70 0.0 17.7 0.00 0.00 0.00 73 1013.4
20240222012046 21 61 3.2 17.7 0.00 0.00 0.00 73 1013.6
20240222011554 21 166 3.2 12.9 0.00 0.00 0.00 72 1013.5
20240222011046 22 72 0.0 12.9 0.00 0.00 0.00 72 1013.6
20240222010548 22 0 1.6 17.7 0.00 0.00 0.00 71 1013.8
20240222010059 22 78 1.6 17.7 0.00 0.00 0.00 71 1013.8
20240222005545 22 71 4.8 17.7 0.00 0.00 0.00 70 1013.9
20240222005046 22 55 1.6 4.8 0.00 0.00 0.00 70 1013.9
20240222004610 22 143 0.0 16.1 0.00 0.00 0.00 70 1014.0
20240222004045 22 155 0.0 19.3 0.00 0.00 0.00 70 1014.1
20240222003547 22 248 1.6 19.3 0.00 0.00 0.00 69 1014.3
20240222003107 23 76 3.2 19.3 0.00 0.00 0.00 69 1014.3
20240222002545 23 149 3.2 19.3 0.00 0.00 0.00 68 1014.2
20240222002046 23 96 3.2 12.9 0.00 0.00 0.00 67 1014.3
20240222001620 23 60 1.6 11.3 0.00 0.00 0.00 66 1014.4
20240222001045 23 71 1.6 19.3 0.00 0.00 0.00 66 1014.5
20240222000545 23 66 1.6 19.3 0.00 0.00 0.00 66 1014.3
20240222000105 23 106 0.0 12.9 0.00 0.00 0.00 66 1014.2
20240221235545 23 96 3.2 11.3 0.00 0.00 0.00 65 1014.5
20240221235046 23 0 1.6 11.3 0.00 0.00 0.00 65 1014.6
20240221234604 23 99 3.2 11.3 0.00 0.00 0.00 65 1014.6
20240221234047 23 72 1.6 14.5 0.00 0.00 0.00 65 1014.6
20240221233546 24 62 3.2 14.5 0.00 0.00 0.00 65 1014.6
20240221233105 24 76 3.2 16.1 0.00 0.00 0.00 65 1014.6
20240221232545 24 72 3.2 16.1 0.00 0.00 0.00 65 1014.5
20240221232044 24 77 1.6 16.1 0.00 0.00 0.00 65 1014.3
20240221231602 24 0 1.6 16.1 0.00 0.00 0.00 65 1014.2
20240221231045 24 39 1.6 8.0 0.00 0.00 0.00 65 1014.2
20240221230545 24 54 0.0 12.9 0.00 0.00 0.00 65 1014.4
20240221230108 24 0 1.6 19.3 0.00 0.00 0.00 66 1014.3
20240221225545 24 90 3.2 19.3 0.00 0.00 0.00 66 1014.3
20240221225047 24 66 3.2 19.3 0.00 0.00 0.00 66 1014.4
20240221224603 24 61 1.6 11.3 0.00 0.00 0.00 66 1014.4
20240221224045 24 64 1.6 12.9 0.00 0.00 0.00 67 1014.5
20240221223545 24 0 1.6 12.9 0.00 0.00 0.00 67 1014.5
20240221223055 24 85 1.6 16.1 0.00 0.00 0.00 66 1014.6
20240221222546 24 78 3.2 16.1 0.00 0.00 0.00 66 1014.7
20240221222044 24 76 3.2 16.1 0.00 0.00 0.00 66 1014.9
20240221221601 24 74 3.2 12.9 0.00 0.00 0.00 66 1015.0
20240221221045 24 75 1.6 17.7 0.00 0.00 0.00 66 1015.0
20240221220546 24 0 1.6 17.7 0.00 0.00 0.00 67 1015.2
20240221220106 24 66 4.8 17.7 0.00 0.00 0.00 67 1015.4
20240221215546 24 74 1.6 16.1 0.00 0.00 0.00 66 1015.4
20240221215046 24 70 4.8 16.1 0.00 0.00 0.00 67 1015.4
20240221214627 24 89 3.2 12.9 0.00 0.00 0.00 67 1015.5
20240221214045 24 81 3.2 12.9 0.00 0.00 0.00 67 1015.6
20240221213546 24 0 3.2 14.5 0.00 0.00 0.00 66 1015.7
20240221213122 24 114 1.6 17.7 0.00 0.00 0.00 68 1015.7
20240221212546 23 66 1.6 17.7 0.00 0.00 0.00 67 1015.8
20240221212046 23 60 3.2 17.7 0.00 0.00 0.00 67 1015.9
20240221211620 23 247 1.6 14.5 0.00 0.00 0.00 68 1016.1
20240221211045 23 101 4.8 14.5 0.00 0.00 0.00 67 1016.2
20240221210616 23 70 3.2 14.5 0.00 0.00 0.00 67 1016.3
20240221210113 23 83 3.2 14.5 0.00 0.00 0.00 67 1016.4
20240221205546 24 96 3.2 12.9 0.00 0.00 0.00 67 1016.6
20240221205045 23 74 1.6 14.5 0.00 0.00 0.00 68 1016.8
20240221204608 23 18 3.2 14.5 0.00 0.00 0.00 68 1016.8
20240221204049 23 85 4.8 24.1 0.00 0.00 0.00 68 1016.9
20240221203545 23 63 4.8 24.1 0.00 0.00 0.00 68 1016.9
20240221203102 23 68 4.8 14.5 0.00 0.00 0.00 68 1017.0
20240221202545 23 89 3.2 14.5 0.00 0.00 0.00 69 1017.2
20240221202045 23 119 3.2 14.5 0.00 0.00 0.00 69 1017.3
20240221201553 23 132 3.2 22.5 0.00 0.00 0.00 71 1017.5
20240221201049 22 82 4.8 22.5 0.00 0.00 0.00 70 1017.6
20240221200545 23 81 4.8 22.5 0.00 0.00 0.00 69 1017.8
20240221200058 23 112 3.2 14.5 0.00 0.00 0.00 71 1017.8
20240221195546 23 208 4.8 14.5 0.00 0.00 0.00 70 1018.0
20240221195045 22 245 3.2 16.1 0.00 0.00 0.00 72 1018.0
20240221194558 22 104 3.2 16.1 0.00 0.00 0.00 74 1018.1
20240221194049 22 81 3.2 16.1 0.00 0.00 0.00 74 1018.3
20240221193546 22 305 3.2 19.3 0.00 0.00 0.00 74 1018.4
20240221193104 22 85 4.8 19.3 0.00 0.00 0.00 74 1018.6
20240221192546 22 105 4.8 24.1 0.00 0.00 0.00 74 1018.8
20240221192049 22 129 4.8 24.1 0.00 0.00 0.00 75 1018.9
20240221191557 21 90 4.8 19.3 0.00 0.00 0.00 75 1019.1
20240221191046 21 85 4.8 19.3 0.00 0.00 0.00 75 1019.2
20240221190545 22 88 3.2 16.1 0.00 0.00 0.00 75 1019.5
20240221190104 22 78 1.6 14.5 0.00 0.00 0.00 75 1019.5
20240221185546 22 99 1.6 14.5 0.00 0.00 0.00 75 1019.7
20240221185050 22 79 4.8 14.5 0.00 0.00 0.00 74 1019.8
20240221184559 22 88 3.2 14.5 0.00 0.00 0.00 74 1019.9
20240221184046 22 74 0.0 11.3 0.00 0.00 0.00 76 1019.8
20240221183545 21 72 3.2 14.5 0.00 0.00 0.00 75 1019.9
20240221183053 22 87 4.8 14.5 0.00 0.00 0.00 74 1020.0
20240221182546 22 89 3.2 14.5 0.00 0.00 0.00 74 1020.2
20240221182045 22 255 3.2 16.1 0.00 0.00 0.00 73 1020.2
20240221181555 22 91 4.8 16.1 0.00 0.00 0.00 73 1020.3
20240221181045 22 89 3.2 16.1 0.00 0.00 0.00 74 1020.4
20240221180545 22 99 4.8 22.5 0.00 0.00 0.00 74 1020.6
20240221180055 21 199 3.2 22.5 0.00 0.00 0.00 75 1020.6
20240221175545 21 78 3.2 14.5 0.00 0.00 0.00 75 1020.7
20240221175046 21 249 3.2 17.7 0.00 0.00 0.00 75 1020.8
20240221174551 21 101 4.8 17.7 0.00 0.00 0.00 75 1020.9
20240221174048 21 91 3.2 16.1 0.00 0.00 0.00 77 1020.9
20240221173544 20 0 3.2 19.3 0.00 0.00 0.00 77 1021.1
20240221173107 20 74 1.6 19.3 0.00 0.00 0.00 77 1021.2
20240221172551 20 90 3.2 17.7 0.00 0.00 0.00 77 1021.4
20240221172044 20 84 1.6 16.1 0.00 0.00 0.00 78 1021.4
20240221171550 20 85 6.4 14.5 0.00 0.00 0.00 78 1021.5
20240221171044 20 180 4.8 14.5 0.00 0.00 0.00 77 1021.7
20240221170544 20 99 3.2 17.7 0.00 0.00 0.00 77 1021.7
20240221170052 20 0 4.8 17.7 0.00 0.00 0.00 77 1021.7
20240221165545 20 101 6.4 17.7 0.00 0.00 0.00 76 1021.8
20240221165046 20 167 1.6 14.5 0.00 0.00 0.00 76 1021.9
20240221164554 21 74 3.2 14.5 0.00 0.00 0.00 75 1021.9
20240221164045 21 87 4.8 17.7 0.00 0.00 0.00 76 1021.9
20240221163546 20 107 4.8 17.7 0.00 0.00 0.00 76 1021.9
20240221163052 20 74 3.2 12.9 0.00 0.00 0.00 76 1021.9
20240221162546 20 68 4.8 12.9 0.00 0.00 0.00 77 1022.0
20240221162045 20 77 1.6 14.5 0.00 0.00 0.00 78 1022.0
20240221161608 20 85 3.2 19.3 0.00 0.00 0.00 80 1022.0
20240221161045 19 75 1.6 19.3 0.00 0.00 0.00 81 1022.1
20240221160545 18 87 4.8 19.3 0.00 0.00 0.00 81 1022.0
20240221160051 18 81 1.6 12.9 0.00 0.00 0.00 81 1022.1
20240221155545 18 148 4.8 12.9 0.00 0.00 0.00 81 1022.1
20240221155045 18 89 1.6 11.3 0.00 0.00 0.00 82 1022.1
20240221154552 18 85 1.6 11.3 0.00 0.00 0.00 82 1022.0
20240221154044 18 88 3.2 11.3 0.00 0.00 0.00 83 1022.0
20240221153545 18 83 1.6 12.9 0.00 0.00 0.00 84 1022.1
20240221153053 18 0 3.2 17.7 0.00 0.00 0.00 84 1021.9
20240221152544 18 337 0.0 17.7 0.00 0.00 0.00 85 1021.9
20240221152044 17 113 3.2 17.7 0.00 0.00 0.00 85 1022.0
20240221151552 17 100 3.2 14.5 0.00 0.00 0.00 85 1021.9
20240221151044 17 157 1.6 9.7 0.00 0.00 0.00 86 1021.9
20240221150549 17 112 1.6 8.0 0.00 0.00 0.00 86 1021.8
20240221150100 17 105 0.0 11.3 0.00 0.00 0.00 86 1021.9
20240221145545 17 84 1.6 12.9 0.00 0.00 0.00 86 1021.9
20240221145049 17 85 1.6 12.9 0.00 0.00 0.00 87 1021.7
20240221144557 17 87 1.6 9.7 0.00 0.00 0.00 86 1021.7
20240221144046 17 0 1.6 8.0 0.00 0.00 0.00 86 1021.6
20240221143547 17 103 0.0 12.9 0.00 0.00 0.00 86 1021.6
20240221143100 17 229 3.2 12.9 0.00 0.00 0.00 86 1021.6
20240221142551 17 82 0.0 8.0 0.00 0.00 0.00 86 1021.5
20240221142044 17 106 1.6 12.9 0.00 0.00 0.00 86 1021.5
20240221141603 17 0 0.0 12.9 0.00 0.00 0.00 86 1021.4
20240221141048 17 90 0.0 12.9 0.00 0.00 0.00 86 1021.5
20240221140545 17 87 0.0 11.3 0.00 0.00 0.00 86 1021.4
20240221140055 17 0 3.2 11.3 0.00 0.00 0.00 86 1021.4
20240221135544 17 0 1.6 12.9 0.00 0.00 0.00 86 1021.3
20240221135044 17 0 0.0 12.9 0.00 0.00 0.00 87 1021.3
20240221134603 17 83 0.0 9.7 0.00 0.00 0.00 87 1021.4
20240221134046 17 0 0.0 9.7 0.00 0.00 0.00 87 1021.5
20240221133544 17 0 1.6 8.0 0.00 0.00 0.00 87 1021.4
20240221133054 17 0 0.0 14.5 0.00 0.00 0.00 86 1021.5
20240221132545 17 68 3.2 14.5 0.00 0.00 0.00 87 1021.5
20240221132049 17 85 0.0 8.0 0.00 0.00 0.00 87 1021.6
20240221131601 17 85 0.0 11.3 0.00 0.00 0.00 87 1021.5
20240221131046 17 81 1.6 11.3 0.00 0.00 0.00 87 1021.5
20240221130545 17 76 1.6 12.9 0.00 0.00 0.00 86 1021.5
20240221130103 17 103 0.0 12.9 0.00 0.00 0.00 87 1021.5
20240221125545 17 89 1.6 12.9 0.00 0.00 0.00 87 1021.4
20240221125045 17 92 0.0 6.4 0.00 0.00 0.00 87 1021.5
20240221124558 17 79 0.0 8.0 0.00 0.00 0.00 87 1021.5
20240221124044 17 83 0.0 16.1 0.00 0.00 0.00 87 1021.5
20240221123546 17 0 1.6 16.1 0.00 0.00 0.00 87 1021.4
20240221123057 17 150 0.0 11.3 0.00 0.00 0.00 87 1021.4
20240221122542 17 116 1.6 11.3 0.00 0.00 0.00 87 1021.5
20240221122046 17 93 1.6 9.7 0.00 0.00 0.00 87 1021.5
20240221121548 17 91 0.0 14.5 0.00 0.00 0.00 87 1021.4
20240221121046 17 0 0.0 14.5 0.00 0.00 0.00 87 1021.4
20240221120545 17 129 1.6 14.5 0.00 0.00 0.00 87 1021.3
20240221120050 17 199 1.6 12.9 0.00 0.00 0.00 87 1021.4
20240221115546 17 72 1.6 6.4 0.00 0.00 0.00 88 1021.4
20240221115050 17 91 1.6 6.4 0.00 0.00 0.00 88 1021.4
20240221114556 17 0 0.0 11.3 0.00 0.00 0.00 88 1021.4